| time (UTC) | temp F | wind direction | speed MPH | gust MPH | rain 1hr in | rain 24hr in | rain mn in | humidity % | barometer mb |
| 20260504232005 | 75 | 233 | 11.0 | 20.0 | 0.00 | 0.00 | 0.00 | 47 | 1005.6 |
| 20260504231504 | 75 | 230 | 12.0 | 20.0 | 0.00 | 0.00 | 0.00 | 47 | 1005.6 |
| 20260504231004 | 74 | 219 | 14.0 | 20.0 | 0.00 | 0.00 | 0.00 | 49 | 1005.9 |
| 20260504230504 | 74 | 228 | 11.0 | 18.0 | 0.00 | 0.00 | 0.00 | 51 | 1005.9 |
| 20260504230005 | 74 | 218 | 12.0 | 18.0 | 0.00 | 0.00 | 0.00 | 51 | 1005.9 |
| 20260504225504 | 74 | 222 | 10.0 | 18.0 | 0.00 | 0.00 | 0.00 | 52 | 1005.9 |
| 20260504225004 | 75 | 205 | 9.0 | 18.0 | 0.00 | 0.00 | 0.00 | 52 | 1005.9 |
| 20260504224504 | 75 | 209 | 6.0 | 14.0 | 0.00 | 0.00 | 0.00 | 52 | 1005.9 |
| 20260504224004 | 75 | 234 | 8.0 | 14.0 | 0.00 | 0.00 | 0.00 | 54 | 1005.8 |
| 20260504223504 | 75 | 254 | 5.0 | 13.0 | 0.00 | 0.00 | 0.00 | 55 | 1005.9 |
| 20260504223005 | 74 | 204 | 7.0 | 13.0 | 0.00 | 0.00 | 0.00 | 54 | 1005.8 |
| 20260504222504 | 74 | 203 | 9.0 | 15.0 | 0.00 | 0.00 | 0.00 | 54 | 1005.8 |
| 20260504222005 | 74 | 211 | 7.0 | 15.0 | 0.00 | 0.00 | 0.00 | 54 | 1005.8 |
| 20260504221504 | 74 | 195 | 6.0 | 15.0 | 0.00 | 0.00 | 0.00 | 54 | 1006.2 |
| 20260504221004 | 74 | 225 | 5.0 | 12.0 | 0.00 | 0.00 | 0.00 | 53 | 1006.3 |
| 20260504220504 | 74 | 228 | 7.0 | 14.0 | 0.00 | 0.00 | 0.00 | 53 | 1006.4 |
| 20260504215504 | 74 | 237 | 8.0 | 14.0 | 0.00 | 0.00 | 0.00 | 53 | 1006.4 |
| 20260504214504 | 74 | 215 | 5.0 | 16.0 | 0.00 | 0.00 | 0.00 | 54 | 1006.6 |
| 20260504214004 | 74 | 234 | 6.0 | 16.0 | 0.00 | 0.00 | 0.00 | 52 | 1006.6 |
| 20260504213504 | 74 | 212 | 8.0 | 16.0 | 0.00 | 0.00 | 0.00 | 52 | 1006.5 |
| 20260504213004 | 74 | 247 | 9.0 | 12.0 | 0.00 | 0.00 | 0.00 | 52 | 1006.7 |
| 20260504212504 | 74 | 208 | 5.0 | 13.0 | 0.00 | 0.00 | 0.00 | 53 | 1006.7 |
| 20260504212004 | 74 | 265 | 8.0 | 15.0 | 0.00 | 0.00 | 0.00 | 50 | 1006.7 |
| 20260504211503 | 74 | 285 | 8.0 | 16.0 | 0.00 | 0.00 | 0.00 | 51 | 1006.8 |
| 20260504210504 | 74 | 285 | 6.0 | 17.0 | 0.00 | 0.00 | 0.00 | 50 | 1007.3 |
| 20260504210004 | 74 | 265 | 9.0 | 20.0 | 0.00 | 0.00 | 0.00 | 51 | 1007.3 |
| 20260504205504 | 74 | 256 | 13.0 | 20.0 | 0.00 | 0.00 | 0.00 | 50 | 1007.3 |
| 20260504205004 | 73 | 255 | 9.0 | 16.0 | 0.00 | 0.00 | 0.00 | 50 | 1007.3 |
| 20260504204504 | 73 | 284 | 12.0 | 17.0 | 0.00 | 0.00 | 0.00 | 50 | 1007.3 |
| 20260504204004 | 73 | 253 | 10.0 | 22.0 | 0.00 | 0.00 | 0.00 | 50 | 1007.3 |
| 20260504203504 | 74 | 240 | 10.0 | 22.0 | 0.00 | 0.00 | 0.00 | 52 | 1007.3 |
| 20260504202505 | 74 | 220 | 12.0 | 21.0 | 0.00 | 0.00 | 0.00 | 56 | 1007.3 |
| 20260504202004 | 73 | 267 | 11.0 | 16.0 | 0.00 | 0.00 | 0.00 | 53 | 1007.3 |
| 20260504201504 | 74 | 241 | 10.0 | 17.0 | 0.00 | 0.00 | 0.00 | 52 | 1007.3 |
| 20260504201004 | 73 | 234 | 12.0 | 17.0 | 0.00 | 0.00 | 0.00 | 54 | 1007.8 |
| 20260504200503 | 72 | 230 | 7.0 | 22.0 | 0.00 | 0.00 | 0.00 | 56 | 1007.8 |
| 20260504200004 | 72 | 262 | 12.0 | 22.0 | 0.00 | 0.00 | 0.00 | 54 | 1007.8 |
| 20260504195504 | 73 | 248 | 12.0 | 16.0 | 0.00 | 0.00 | 0.00 | 53 | 1007.8 |
| 20260504195004 | 73 | 245 | 8.0 | 15.0 | 0.00 | 0.00 | 0.00 | 57 | 1008.2 |
| 20260504194504 | 72 | 209 | 9.0 | 15.0 | 0.00 | 0.00 | 0.00 | 60 | 1008.2 |
| 20260504194004 | 71 | 231 | 7.0 | 12.0 | 0.00 | 0.00 | 0.00 | 58 | 1008.4 |
| 20260504193504 | 71 | 241 | 7.0 | 16.0 | 0.00 | 0.00 | 0.00 | 57 | 1008.4 |
| 20260504193004 | 71 | 257 | 8.0 | 16.0 | 0.00 | 0.00 | 0.00 | 59 | 1008.4 |
| 20260504192504 | 70 | 226 | 7.0 | 14.0 | 0.00 | 0.00 | 0.00 | 61 | 1008.4 |
| 20260504191504 | 69 | 248 | 6.0 | 12.0 | 0.00 | 0.00 | 0.00 | 62 | 1008.7 |
| 20260504191004 | 68 | 236 | 5.0 | 13.0 | 0.00 | 0.00 | 0.00 | 62 | 1008.8 |
| 20260504190504 | 68 | 235 | 6.0 | 18.0 | 0.00 | 0.00 | 0.00 | 61 | 1008.6 |
| 20260504190004 | 68 | 237 | 9.0 | 22.0 | 0.00 | 0.00 | 0.00 | 62 | 1008.6 |
| 20260504184504 | 68 | 240 | 13.0 | 22.0 | 0.00 | 0.00 | 0.00 | 59 | 1008.6 |
| 20260504183504 | 68 | 256 | 9.0 | 17.0 | 0.00 | 0.00 | 0.00 | 58 | 1008.3 |
| 20260504183004 | 69 | 261 | 11.0 | 24.0 | 0.00 | 0.00 | 0.00 | 58 | 1008.0 |
| 20260504182504 | 68 | 256 | 13.0 | 24.0 | 0.00 | 0.00 | 0.00 | 58 | 1008.0 |
| 20260504182004 | 69 | 235 | 13.0 | 23.0 | 0.00 | 0.00 | 0.00 | 57 | 1008.0 |
| 20260504181505 | 69 | 241 | 12.0 | 26.0 | 0.00 | 0.00 | 0.00 | 56 | 1008.0 |
| 20260504181004 | 70 | 220 | 12.0 | 26.0 | 0.00 | 0.00 | 0.00 | 57 | 1007.9 |
| 20260504180505 | 70 | 189 | 12.0 | 21.0 | 0.00 | 0.00 | 0.00 | 57 | 1007.9 |
| 20260504180004 | 70 | 211 | 14.0 | 26.0 | 0.00 | 0.00 | 0.00 | 58 | 1007.9 |
| 20260504175504 | 70 | 225 | 9.0 | 26.0 | 0.00 | 0.00 | 0.00 | 59 | 1008.0 |
| 20260504175004 | 69 | 214 | 13.0 | 26.0 | 0.00 | 0.00 | 0.00 | 60 | 1007.9 |
| 20260504174504 | 69 | 214 | 7.0 | 21.0 | 0.00 | 0.00 | 0.00 | 61 | 1007.9 |
| 20260504174004 | 69 | 241 | 7.0 | 15.0 | 0.00 | 0.00 | 0.00 | 63 | 1007.9 |
| 20260504173504 | 68 | 218 | 7.0 | 13.0 | 0.00 | 0.00 | 0.00 | 62 | 1007.5 |
| 20260504173004 | 68 | 200 | 7.0 | 13.0 | 0.00 | 0.00 | 0.00 | 61 | 1007.4 |
| 20260504172504 | 68 | 194 | 9.0 | 15.0 | 0.00 | 0.00 | 0.00 | 61 | 1007.7 |
| 20260504172004 | 68 | 203 | 8.0 | 17.0 | 0.00 | 0.00 | 0.00 | 61 | 1008.0 |
| 20260504171504 | 68 | 230 | 6.0 | 17.0 | 0.00 | 0.00 | 0.00 | 61 | 1008.1 |
| 20260504171004 | 67 | 237 | 7.0 | 17.0 | 0.00 | 0.00 | 0.00 | 62 | 1008.2 |
| 20260504170504 | 67 | 240 | 6.0 | 14.0 | 0.00 | 0.00 | 0.00 | 62 | 1008.1 |
| 20260504151004 | 63 | 213 | 7.0 | 18.0 | 0.00 | 0.00 | 0.00 | 65 | 1008.7 |
| 20260504150503 | 63 | 230 | 10.0 | 18.0 | 0.00 | 0.00 | 0.00 | 64 | 1008.6 |
| 20260504141004 | 60 | 202 | 10.0 | 18.0 | 0.00 | 0.00 | 0.00 | 68 | 1009.1 |
| 20260504140504 | 59 | 217 | 9.0 | 18.0 | 0.00 | 0.00 | 0.00 | 69 | 1009.1 |
| 20260504130504 | 56 | 208 | 8.0 | 15.0 | 0.00 | 0.00 | 0.00 | 69 | 1009.6 |
| 20260504110504 | 52 | 204 | 6.0 | 13.0 | 0.00 | 0.00 | 0.00 | 67 | 1009.5 |
| 20260504100504 | 51 | 213 | 4.0 | 7.0 | 0.00 | 0.00 | 0.00 | 65 | 1009.6 |
| 20260504082004 | 53 | 211 | 6.0 | 14.0 | 0.00 | 0.00 | 0.00 | 61 | 1010.3 |
| 20260504081504 | 53 | 213 | 6.0 | 13.0 | 0.00 | 0.00 | 0.00 | 61 | 1010.3 |
| 20260504081004 | 53 | 213 | 7.0 | 13.0 | 0.00 | 0.00 | 0.00 | 60 | 1010.4 |
| 20260504080504 | 53 | 201 | 7.0 | 13.0 | 0.00 | 0.00 | 0.00 | 61 | 1010.4 |
| 20260504050504 | 50 | 194 | 5.0 | 8.0 | 0.00 | 0.00 | 0.00 | 65 | 1011.9 |
| 20260504050004 | 50 | 196 | 3.0 | 8.0 | 0.00 | 0.00 | 0.00 | 64 | 1011.8 |
| 20260504045504 | 50 | 196 | 4.0 | 8.0 | 0.00 | 0.00 | 0.00 | 64 | 1011.8 |
| 20260504045004 | 50 | 191 | 5.0 | 8.0 | 0.00 | 0.00 | 0.00 | 64 | 1011.9 |
| 20260504044504 | 50 | 193 | 4.0 | 8.0 | 0.00 | 0.00 | 0.00 | 64 | 1012.0 |
| 20260504044003 | 51 | 193 | 4.0 | 8.0 | 0.00 | 0.00 | 0.00 | 63 | 1011.9 |
| 20260504043004 | 51 | 178 | 5.0 | 9.0 | 0.00 | 0.00 | 0.00 | 63 | 1012.1 |
| 20260504042504 | 51 | 169 | 4.0 | 9.0 | 0.00 | 0.00 | 0.00 | 62 | 1012.2 |
| 20260504042005 | 51 | 171 | 5.0 | 10.0 | 0.00 | 0.00 | 0.00 | 62 | 1012.4 |
| 20260504041504 | 51 | 184 | 7.0 | 10.0 | 0.00 | 0.00 | 0.00 | 62 | 1012.3 |
| 20260504041004 | 51 | 187 | 5.0 | 12.0 | 0.00 | 0.00 | 0.00 | 61 | 1012.5 |
| 20260504040504 | 52 | 182 | 5.0 | 12.0 | 0.00 | 0.00 | 0.00 | 61 | 1012.5 |
| 20260504040004 | 52 | 186 | 5.0 | 12.0 | 0.00 | 0.00 | 0.00 | 61 | 1012.5 |
| 20260504034504 | 52 | 189 | 5.0 | 9.0 | 0.00 | 0.00 | 0.00 | 60 | 1012.6 |
| 20260504034004 | 52 | 189 | 5.0 | 9.0 | 0.00 | 0.00 | 0.00 | 60 | 1012.6 |
| 20260504033504 | 53 | 179 | 5.0 | 9.0 | 0.00 | 0.00 | 0.00 | 59 | 1012.6 |
| 20260504033004 | 53 | 183 | 5.0 | 9.0 | 0.00 | 0.00 | 0.00 | 59 | 1012.7 |
| 20260504032505 | 53 | 179 | 5.0 | 9.0 | 0.00 | 0.00 | 0.00 | 58 | 1012.7 |
| 20260504032004 | 53 | 184 | 4.0 | 7.0 | 0.00 | 0.00 | 0.00 | 58 | 1012.7 |
| 20260504031504 | 54 | 190 | 5.0 | 7.0 | 0.00 | 0.00 | 0.00 | 57 | 1012.8 |
| 20260504030504 | 54 | 171 | 3.0 | 6.0 | 0.00 | 0.00 | 0.00 | 56 | 1012.9 |
| 20260504030004 | 54 | 169 | 3.0 | 6.0 | 0.00 | 0.00 | 0.00 | 56 | 1012.9 |
| 20260504025504 | 55 | 167 | 3.0 | 6.0 | 0.00 | 0.00 | 0.00 | 55 | 1013.0 |
| 20260504025004 | 55 | 173 | 5.0 | 7.0 | 0.00 | 0.00 | 0.00 | 54 | 1012.9 |
| 20260504023004 | 56 | 326 | 2.0 | 7.0 | 0.00 | 0.00 | 0.00 | 53 | 1012.8 |
| 20260504022004 | 56 | 288 | 3.0 | 7.0 | 0.00 | 0.00 | 0.00 | 52 | 1012.8 |
| 20260504021504 | 56 | 326 | 4.0 | 13.0 | 0.00 | 0.00 | 0.00 | 51 | 1012.8 |
| 20260504021004 | 56 | 329 | 5.0 | 13.0 | 0.00 | 0.00 | 0.00 | 50 | 1012.8 |
| 20260504020504 | 56 | 310 | 7.0 | 12.0 | 0.00 | 0.00 | 0.00 | 49 | 1012.8 |
| 20260504020004 | 56 | 311 | 6.0 | 12.0 | 0.00 | 0.00 | 0.00 | 49 | 1012.6 |
| 20260504015505 | 56 | 302 | 8.0 | 16.0 | 0.00 | 0.00 | 0.00 | 49 | 1012.6 |
| 20260504015004 | 56 | 268 | 6.0 | 16.0 | 0.00 | 0.00 | 0.00 | 48 | 1012.5 |
| 20260504014504 | 56 | 228 | 2.0 | 9.0 | 0.00 | 0.00 | 0.00 | 49 | 1012.4 |
| 20260504014004 | 56 | 227 | 3.0 | 9.0 | 0.00 | 0.00 | 0.00 | 48 | 1012.5 |
| 20260504013504 | 56 | 202 | 5.0 | 8.0 | 0.00 | 0.00 | 0.00 | 48 | 1012.4 |
| 20260504012504 | 56 | 189 | 5.0 | 12.0 | 0.00 | 0.00 | 0.00 | 47 | 1012.5 |
| 20260504011504 | 56 | 290 | 7.0 | 10.0 | 0.00 | 0.00 | 0.00 | 47 | 1012.7 |
| 20260504011005 | 56 | 264 | 3.0 | 9.0 | 0.00 | 0.00 | 0.00 | 47 | 1012.7 |
| 20260504010504 | 57 | 256 | 5.0 | 9.0 | 0.00 | 0.00 | 0.00 | 47 | 1012.7 |
| 20260504010004 | 57 | 244 | 3.0 | 6.0 | 0.00 | 0.00 | 0.00 | 47 | 1012.7 |
| 20260504005504 | 57 | 274 | 3.0 | 6.0 | 0.00 | 0.00 | 0.00 | 46 | 1012.6 |
| 20260504004004 | 57 | 219 | 5.0 | 9.0 | 0.00 | 0.00 | 0.00 | 45 | 1012.5 |
| 20260504003504 | 57 | 225 | 6.0 | 9.0 | 0.00 | 0.00 | 0.00 | 44 | 1012.1 |
| 20260504003004 | 57 | 247 | 6.0 | 12.0 | 0.00 | 0.00 | 0.00 | 44 | 1012.1 |
| 20260504002003 | 57 | 203 | 6.0 | 12.0 | 0.00 | 0.00 | 0.00 | 45 | 1012.1 |
| 20260504001504 | 57 | 223 | 5.0 | 12.0 | 0.00 | 0.00 | 0.00 | 45 | 1012.1 |
| 20260504001004 | 57 | 207 | 6.0 | 12.0 | 0.00 | 0.00 | 0.00 | 45 | 1012.1 |
| 20260504000504 | 58 | 218 | 5.0 | 9.0 | 0.00 | 0.00 | 0.00 | 44 | 1011.9 |
| 20260503235504 | 58 | 220 | 5.0 | 12.0 | 0.00 | 0.00 | 0.00 | 43 | 1011.9 |
| 20260503235004 | 58 | 204 | 4.0 | 12.0 | 0.00 | 0.00 | 0.00 | 44 | 1012.0 |
| 20260503234504 | 59 | 199 | 5.0 | 12.0 | 0.00 | 0.00 | 0.00 | 43 | 1012.2 |
| 20260503234004 | 59 | 204 | 8.0 | 14.0 | 0.00 | 0.00 | 0.00 | 43 | 1012.2 |
| 20260503233504 | 59 | 216 | 8.0 | 14.0 | 0.00 | 0.00 | 0.00 | 42 | 1012.6 |
| 20260503233004 | 59 | 230 | 4.0 | 9.0 | 0.00 | 0.00 | 0.00 | 42 | 1012.6 |